| time (UTC) | temp F | wind direction | speed MPH | gust MPH | rain 1hr in | rain 24hr in | rain mn in | humidity % | barometer mb |
| 20260503004503 | 68 | 360 | 1.0 | 8.0 | 0.00 | 0.00 | 0.00 | 29 | 1010.7 |
| 20260503003002 | 68 | 360 | 1.0 | 5.0 | 0.00 | 0.00 | 0.00 | 29 | 1010.6 |
| 20260503001501 | 70 | 160 | 1.0 | 5.0 | 0.00 | 0.00 | 0.00 | 29 | 1010.5 |
| 20260503000004 | 69 | 264 | 0.0 | 2.0 | 0.00 | 0.00 | 0.00 | 28 | 1010.5 |
| 20260502234501 | 69 | 166 | 0.0 | 5.0 | 0.00 | 0.00 | 0.00 | 29 | 1010.5 |
| 20260502233003 | 68 | 360 | 1.0 | 5.0 | 0.00 | 0.00 | 0.00 | 31 | 1010.6 |
| 20260502231502 | 68 | 180 | 1.0 | 4.0 | 0.00 | 0.00 | 0.00 | 30 | 1010.8 |
| 20260502230004 | 69 | 360 | 1.0 | 7.0 | 0.00 | 0.00 | 0.00 | 29 | 1010.6 |
| 20260502224501 | 70 | 360 | 1.0 | 6.0 | 0.00 | 0.00 | 0.00 | 29 | 1010.7 |
| 20260502223002 | 70 | 169 | 1.0 | 5.0 | 0.00 | 0.00 | 0.00 | 29 | 1010.8 |
| 20260502221501 | 71 | 200 | 2.0 | 8.0 | 0.00 | 0.00 | 0.00 | 28 | 1011.1 |
| 20260502220004 | 68 | 143 | 0.0 | 6.0 | 0.00 | 0.00 | 0.00 | 30 | 1011.3 |
| 20260502214501 | 68 | 140 | 2.0 | 6.0 | 0.00 | 0.00 | 0.00 | 30 | 1011.5 |
| 20260502213003 | 69 | 360 | 1.0 | 5.0 | 0.00 | 0.00 | 0.00 | 31 | 1011.6 |
| 20260502211501 | 68 | 187 | 1.0 | 7.0 | 0.00 | 0.00 | 0.00 | 28 | 1012.0 |
| 20260502204501 | 72 | 360 | 3.0 | 12.0 | 0.00 | 0.00 | 0.00 | 27 | 1012.1 |
| 20260502203004 | 71 | 164 | 1.0 | 8.0 | 0.00 | 0.00 | 0.00 | 27 | 1012.2 |
| 20260502201501 | 70 | 189 | 1.0 | 6.0 | 0.00 | 0.00 | 0.00 | 27 | 1012.4 |
| 20260502200004 | 70 | 360 | 1.0 | 7.0 | 0.00 | 0.00 | 0.00 | 27 | 1012.4 |
| 20260502194501 | 68 | 229 | 1.0 | 6.0 | 0.00 | 0.00 | 0.00 | 28 | 1012.7 |
| 20260502193003 | 70 | 360 | 3.0 | 10.0 | 0.00 | 0.00 | 0.00 | 25 | 1013.0 |
| 20260502191501 | 69 | 192 | 1.0 | 7.0 | 0.00 | 0.00 | 0.00 | 27 | 1013.1 |
| 20260502184500 | 67 | 360 | 4.0 | 11.0 | 0.00 | 0.00 | 0.00 | 29 | 1013.5 |
| 20260502163000 | 61 | 180 | 4.0 | 14.0 | 0.00 | 0.00 | 0.00 | 40 | 1013.9 |
| 20260502161500 | 61 | 360 | 3.0 | 12.0 | 0.00 | 0.00 | 0.00 | 40 | 1013.9 |
| 20260502151500 | 57 | 132 | 5.0 | 15.0 | 0.00 | 0.00 | 0.00 | 45 | 1013.9 |
| 20260502123000 | 48 | 360 | 0.0 | 0.0 | 0.00 | 0.00 | 0.00 | 46 | 1011.8 |
| 20260502121500 | 47 | 42 | 2.0 | 5.0 | 0.00 | 0.00 | 0.00 | 48 | 1011.7 |
| 20260502112959 | 49 | 13 | 0.0 | 3.0 | 0.00 | 0.00 | 0.00 | 47 | 1011.5 |
| 20260502111500 | 49 | 51 | 1.0 | 3.0 | 0.00 | 0.00 | 0.00 | 46 | 1011.4 |
| 20260502104500 | 0 | 0.0 | 0.0 | 0.00 | 0.00 | 0.00 | 1011.3 | ||
| 20260502102959 | 0 | 0.0 | 0.0 | 0.00 | 0.00 | 0.00 | 1011.4 | ||
| 20260502091507 | 53 | 29 | 7.0 | 15.0 | 0.00 | 0.00 | 0.00 | 41 | 1011.3 |
| 20260502071507 | 55 | 360 | 8.0 | 19.0 | 0.00 | 0.00 | 0.00 | 36 | 1011.7 |
| 20260502070013 | 55 | 41 | 9.0 | 22.0 | 0.00 | 0.00 | 0.00 | 37 | 1011.8 |
| 20260502064508 | 55 | 360 | 9.0 | 19.0 | 0.00 | 0.00 | 0.00 | 35 | 1011.9 |
| 20260502063007 | 55 | 55 | 8.0 | 19.0 | 0.00 | 0.00 | 0.00 | 37 | 1011.8 |
| 20260502060011 | 56 | 360 | 8.0 | 18.0 | 0.00 | 0.00 | 0.00 | 37 | 1011.6 |
| 20260502054507 | 55 | 360 | 8.0 | 17.0 | 0.00 | 0.00 | 0.00 | 38 | 1011.7 |
| 20260502053008 | 55 | 24 | 10.0 | 20.0 | 0.00 | 0.00 | 0.00 | 38 | 1011.3 |
| 20260502051507 | 55 | 40 | 11.0 | 21.0 | 0.00 | 0.00 | 0.00 | 40 | 1011.3 |
| 20260502050011 | 55 | 59 | 10.0 | 21.0 | 0.00 | 0.00 | 0.00 | 40 | 1011.2 |
| 20260502044507 | 55 | 41 | 9.0 | 24.0 | 0.00 | 0.00 | 0.00 | 40 | 1011.1 |
| 20260502043007 | 57 | 21 | 8.0 | 19.0 | 0.00 | 0.00 | 0.00 | 36 | 1011.1 |
| 20260502041507 | 58 | 355 | 9.0 | 17.0 | 0.00 | 0.00 | 0.00 | 32 | 1011.0 |
| 20260502034507 | 59 | 11 | 8.0 | 17.0 | 0.00 | 0.00 | 0.00 | 31 | 1010.0 |
| 20260502033007 | 60 | 360 | 3.0 | 9.0 | 0.00 | 0.00 | 0.00 | 29 | 1009.7 |
| 20260502031508 | 60 | 108 | 2.0 | 6.0 | 0.00 | 0.00 | 0.00 | 30 | 1009.4 |
| 20260502030010 | 59 | 360 | 2.0 | 7.0 | 0.00 | 0.00 | 0.00 | 33 | 1009.1 |
| 20260502024506 | 59 | 72 | 1.0 | 7.0 | 0.00 | 0.00 | 0.00 | 34 | 1009.0 |
| 20260502023006 | 59 | 21 | 1.0 | 4.0 | 0.00 | 0.00 | 0.00 | 34 | 1008.7 |
| 20260502021506 | 59 | 257 | 0.0 | 1.0 | 0.00 | 0.00 | 0.00 | 34 | 1008.6 |
| 20260502020010 | 61 | 360 | 0.0 | 1.0 | 0.00 | 0.00 | 0.00 | 32 | 1008.4 |
| 20260502014506 | 62 | 360 | 1.0 | 6.0 | 0.00 | 0.00 | 0.00 | 31 | 1008.1 |
| 20260502013006 | 64 | 360 | 2.0 | 9.0 | 0.00 | 0.00 | 0.00 | 29 | 1007.9 |
| 20260502011506 | 66 | 360 | 2.0 | 9.0 | 0.00 | 0.00 | 0.00 | 28 | 1007.8 |